COSMOS 886 DEB, 9724

Orbit data source: Space-Track

COSMOS 886 DEB, 9724 is space debris in LEO originally from a launch on Mon, 27 Dec 1976 UTC launched from the Tyuratam Missile And Space Complex (TTMTR). Debris objects in space refer to the collection of defunct objects orbiting the Earth. Examples of debris include non-operational satellites, rocket bodies, and fragments generated from explosions, collisions, or faulty payload assembly.

Loading next visibility...
Identifier
9724, 1976-126V
Orbit
LEO
Country
Flag of CISCIS
Related business
Manufacturer
Unknown
Mission
Spacecraft
Bus & Motor
Unknown
Mass
Unknown
Launch date (UTC)
1976-12-27 (49 years ago)
Launch vehicle
Unknown
Launch site
Tyuratam Missile And Space Complex (TTMTR)
Object type
Payload
Rocket body
Debris
Shape & HBR
Unknown shape, 0.1 m
Radar Cross Section
Small (<0.1 m²)

Expand to show TLE details & history
Last TLE update: 11 hours ago

TLE from 11 hours ago
0 COSMOS 886 DEB
1  9724U 76126V   26130.22590953  .00001293  00000-0  57422-3 0  9999
2  9724  65.8192 208.8537 0772754 179.7429 180.4172 13.27134949332553
Epoch: 2026-05-10T05:25Z
TLE epoch observation values (Epoch: 2026-05-10T05:25:18.583Z)
Latitude
-0.00006°
Longitude
-100.50579°
Altitude
1,741.912 km
Speed
6.732 km/s
True Right ascension
13h 55m 24s
True Declination
0° 00' 00"
Sunlit
Object was in full shadow at epoch
Visualization orbit readout
Latitude
Unknown
Longitude
Unknown
Altitude
Unknown
Speed
Unknown
Apparent Right ascension
Unknown
Apparent Declination
Unknown
Sunlit
N/A
Visualization observer readout
Local Sidereal Time
00:09:57
Azimuth
Unknown
Elevation
Unknown
Doppler factor
Unknown
Orbital elements
Apogee altitude
1,738.343 km
Perigee altitude
573.916 km
Semi-major axis
7,534.267 km
Eccentricity
0.07728
Inclination
65.8192°
RAAN
208.8537°
Arg. of periapsis
179.7429°
True anomaly
180.35842°
Mean anomaly
180.4172°
Eccentric anomaly
180.38727°
Mean motion
3.3188 °/min
Orbital period
108.47 mins
BSTAR
0.00057422
Loading maneuver chart data...
Computing Atmospheric mass density...
Loading historical data...
Loading historical data...
Loading historical data...
Loading historical data...
Loading historical data...
Loading historical data...
Loading historical data...

Documentation

Showing up to 5 results
|